TimeCDT,TemperatureF,Dew PointF,Humidity,Sea Level PressureIn,VisibilityMPH,Wind Direction,Wind SpeedMPH,Gust SpeedMPH,PrecipitationIn,Events,Conditions,WindDirDegrees,DateUTC
12:15 AM,50.0,37.4,62,30.25,10.0,NNE,8.1,-,N/A,,Clear,30,2013-05-24 05:15:00
12:35 AM,48.2,37.4,66,30.25,10.0,NNE,5.8,-,N/A,,Clear,30,2013-05-24 05:35:00
12:55 AM,48.2,37.4,66,30.25,10.0,NNE,8.1,-,N/A,,Clear,30,2013-05-24 05:55:00
1:15 AM,48.2,37.4,66,30.25,10.0,NNE,9.2,-,N/A,,Clear,30,2013-05-24 06:15:00
1:35 AM,48.2,35.6,62,30.25,10.0,NNE,9.2,-,N/A,,Clear,30,2013-05-24 06:35:00
1:55 AM,46.4,37.4,71,30.26,10.0,NNE,8.1,-,N/A,,Clear,30,2013-05-24 06:55:00
2:15 AM,46.4,35.6,66,30.26,10.0,NNE,8.1,-,N/A,,Clear,30,2013-05-24 07:15:00
2:35 AM,46.4,35.6,66,30.26,10.0,NNE,10.4,-,N/A,,Clear,30,2013-05-24 07:35:00
2:55 AM,46.4,35.6,66,30.26,10.0,NNE,8.1,-,N/A,,Clear,30,2013-05-24 07:55:00
3:15 AM,46.4,33.8,62,30.26,10.0,NNE,10.4,-,N/A,,Clear,30,2013-05-24 08:15:00
3:35 AM,46.4,32.0,57,30.26,10.0,NNE,5.8,-,N/A,,Clear,20,2013-05-24 08:35:00
3:55 AM,46.4,32.0,57,30.27,10.0,NNE,6.9,-,N/A,,Clear,30,2013-05-24 08:55:00
4:15 AM,44.6,32.0,61,30.27,10.0,NNE,6.9,-,N/A,,Clear,30,2013-05-24 09:15:00
4:35 AM,44.6,32.0,61,30.28,10.0,NNE,4.6,-,N/A,,Clear,20,2013-05-24 09:35:00
4:55 AM,44.6,30.2,57,30.29,10.0,NNE,4.6,-,N/A,,Clear,20,2013-05-24 09:55:00
5:15 AM,42.8,30.2,61,30.30,10.0,NNE,5.8,-,N/A,,Clear,30,2013-05-24 10:15:00
5:35 AM,42.8,30.2,61,30.30,10.0,NNE,6.9,-,N/A,,Clear,20,2013-05-24 10:35:00
5:55 AM,42.8,30.2,61,30.32,10.0,NNE,6.9,-,N/A,,Clear,20,2013-05-24 10:55:00
6:15 AM,42.8,30.2,61,30.33,10.0,NNE,5.8,-,N/A,,Clear,30,2013-05-24 11:15:00
6:35 AM,42.8,30.2,61,30.35,10.0,NNE,4.6,-,N/A,,Clear,20,2013-05-24 11:35:00
6:55 AM,44.6,30.2,57,30.36,10.0,NNE,3.5,-,N/A,,Clear,20,2013-05-24 11:55:00
7:15 AM,44.6,30.2,57,30.36,10.0,NE,3.5,-,N/A,,Clear,40,2013-05-24 12:15:00
7:35 AM,46.4,32.0,57,30.37,10.0,NNE,6.9,-,N/A,,Clear,30,2013-05-24 12:35:00
7:55 AM,46.4,33.8,62,30.37,10.0,NE,6.9,-,N/A,,Clear,40,2013-05-24 12:55:00
8:15 AM,48.2,33.8,58,30.37,10.0,NE,8.1,-,N/A,,Clear,40,2013-05-24 13:15:00
8:35 AM,48.2,35.6,62,30.38,10.0,NNE,5.8,-,N/A,,Clear,30,2013-05-24 13:35:00
8:55 AM,51.8,35.6,54,30.40,10.0,NE,9.2,-,N/A,,Clear,40,2013-05-24 13:55:00
9:15 AM,51.8,35.6,54,30.40,10.0,North,5.8,-,N/A,,Clear,10,2013-05-24 14:15:00
9:35 AM,51.8,35.6,54,30.41,10.0,North,3.5,-,N/A,,Clear,10,2013-05-24 14:35:00
9:55 AM,53.6,35.6,51,30.41,10.0,North,5.8,-,N/A,,Clear,10,2013-05-24 14:55:00
10:15 AM,53.6,35.6,51,30.40,10.0,ENE,4.6,-,N/A,,Clear,60,2013-05-24 15:15:00
10:35 AM,55.4,35.6,47,30.40,10.0,Calm,Calm,-,N/A,,Clear,0,2013-05-24 15:35:00
10:55 AM,57.2,35.6,44,30.40,10.0,NE,6.9,-,N/A,,Clear,50,2013-05-24 15:55:00
11:15 AM,57.2,37.4,48,30.40,10.0,NNE,4.6,-,N/A,,Clear,20,2013-05-24 16:15:00
11:35 AM,57.2,37.4,48,30.40,10.0,NNE,3.5,-,N/A,,Clear,20,2013-05-24 16:35:00
11:55 AM,60.8,35.6,39,30.39,9.0,NE,8.1,-,N/A,,Clear,50,2013-05-24 16:55:00
12:15 PM,60.8,37.4,42,30.39,10.0,East,4.6,-,N/A,,Clear,80,2013-05-24 17:15:00
12:35 PM,60.8,37.4,42,30.39,10.0,NE,3.5,-,N/A,,Clear,50,2013-05-24 17:35:00
12:55 PM,62.6,37.4,39,30.39,10.0,North,5.8,-,N/A,,Clear,10,2013-05-24 17:55:00
1:15 PM,62.6,35.6,37,30.38,10.0,NNE,6.9,-,N/A,,Clear,30,2013-05-24 18:15:00
1:35 PM,62.6,35.6,37,30.39,10.0,NE,4.6,-,N/A,,Clear,50,2013-05-24 18:35:00
1:55 PM,64.4,33.8,32,30.38,10.0,ENE,5.8,-,N/A,,Clear,60,2013-05-24 18:55:00
2:15 PM,64.4,37.4,37,30.38,10.0,Calm,Calm,-,N/A,,Clear,0,2013-05-24 19:15:00
2:55 PM,66.2,35.6,32,30.37,10.0,SSE,4.6,-,N/A,,Clear,150,2013-05-24 19:55:00
3:35 PM,66.2,37.4,35,30.36,10.0,Calm,Calm,-,N/A,,Clear,0,2013-05-24 20:35:00
3:55 PM,66.2,37.4,35,30.34,10.0,East,3.5,-,N/A,,Clear,90,2013-05-24 20:55:00
4:15 PM,66.2,37.4,35,30.34,10.0,NNE,3.5,-,N/A,,Clear,20,2013-05-24 21:15:00
4:35 PM,66.2,37.4,35,30.33,10.0,NNE,4.6,-,N/A,,Clear,30,2013-05-24 21:35:00
4:55 PM,66.2,37.4,35,30.32,10.0,Calm,Calm,-,N/A,,Clear,0,2013-05-24 21:55:00
5:35 PM,66.2,35.6,32,30.31,10.0,NE,5.8,-,N/A,,Clear,50,2013-05-24 22:35:00
5:55 PM,68.0,35.6,30,30.31,10.0,Calm,Calm,-,N/A,,Clear,0,2013-05-24 22:55:00
6:15 PM,66.2,33.8,30,30.30,10.0,Calm,Calm,-,N/A,,Clear,0,2013-05-24 23:15:00
6:35 PM,66.2,35.6,32,30.30,10.0,Calm,Calm,-,N/A,,Clear,0,2013-05-24 23:35:00
6:55 PM,64.4,37.4,37,30.30,10.0,Calm,Calm,-,N/A,,Clear,0,2013-05-24 23:55:00
7:15 PM,62.6,39.2,42,30.29,10.0,Calm,Calm,-,N/A,,Clear,0,2013-05-25 00:15:00
7:35 PM,59.0,44.6,59,30.29,10.0,Calm,Calm,-,N/A,,Clear,0,2013-05-25 00:35:00
7:55 PM,59.0,42.8,55,30.29,10.0,Calm,Calm,-,N/A,,Clear,0,2013-05-25 00:55:00
8:15 PM,53.6,42.8,67,30.29,7.0,Calm,Calm,-,N/A,,Clear,0,2013-05-25 01:15:00
8:35 PM,51.8,42.8,71,30.30,10.0,Calm,Calm,-,N/A,,Clear,0,2013-05-25 01:35:00
8:55 PM,51.8,41.0,67,30.30,10.0,Calm,Calm,-,N/A,,Clear,0,2013-05-25 01:55:00
9:15 PM,50.0,42.8,76,30.30,10.0,Calm,Calm,-,N/A,,Clear,0,2013-05-25 02:15:00
9:35 PM,48.2,42.8,82,30.31,10.0,Calm,Calm,-,N/A,,Clear,0,2013-05-25 02:35:00
9:55 PM,48.2,41.0,76,30.31,10.0,Calm,Calm,-,N/A,,Clear,0,2013-05-25 02:55:00
10:15 PM,48.2,41.0,76,30.33,10.0,Calm,Calm,-,N/A,,Clear,0,2013-05-25 03:15:00
10:35 PM,48.2,41.0,76,30.33,10.0,Calm,Calm,-,N/A,,Clear,0,2013-05-25 03:35:00
10:55 PM,46.4,41.0,81,30.34,10.0,Calm,Calm,-,N/A,,Clear,0,2013-05-25 03:55:00
11:15 PM,46.4,41.0,81,30.34,10.0,Calm,Calm,-,N/A,,Clear,0,2013-05-25 04:15:00
11:35 PM,46.4,39.2,76,30.33,10.0,NE,3.5,-,N/A,,Clear,40,2013-05-25 04:35:00
11:55 PM,46.4,39.2,76,30.33,10.0,Calm,Calm,-,N/A,,Clear,0,2013-05-25 04:55:00